Voltar ao catálogo

FENGYUN 1C DEB

AtivoPO
NORAD 40695·DEBRIS·🇨🇳 China

Lançado May 10, 1999 de Taiyuan Satellite Launch Center

Loading…

Próximas Passagens (próximas 24 horas)

TLE

EnvelhecendoSource: Space-Track

Época: Sep 10, 2026, 16:38 UTC

1 40695U 99025EXB 26253.69333022  .00000898  00000-0  14672-3 0  9993
2 40695  99.4616  50.6365 0277377 245.2909 111.9178 14.51903622358119

Acompanhe FENGYUN 1C DEB em tempo real com AllMySat

Download on the App Store